Simultaneous Nadir Overpasses (SNOs) Predictions

Prediction of SNOs between FY3D and TERRA Satellite Orbit:

Table of predicted SNOs for the next 14.0 days since TLE Epoch: 8/24/2024
Index Date (FY3D) Time (FY3D) Lat,Lon (FY3D) SZA (FY3D ) Date (TERRA) Time (TERRA) Lat,Lon (TERRA) SZA (TERRA ) Distance(km) Time Diff (sec)
1 08/24/2024 20:10:53 76.07,-122.40 65.28 08/24/2024 20:11:02 76.07,-122.55 65.28 4.10 9
2 08/24/2024 21:01:36 -76.03, 45.08 114.75 08/24/2024 21:00:24 -76.02, 44.97 114.76 3.05 72
3 08/27/2024 07:23:40 76.09, 69.40 66.16 08/27/2024 07:23:52 76.11, 69.33 66.18 2.77 12
4 08/27/2024 08:14:23 -76.04,-123.11 113.88 08/27/2024 08:13:14 -76.07,-123.14 113.86 2.84 69
5 08/29/2024 18:36:27 76.12, -98.85 67.07 08/29/2024 18:36:42 76.10, -98.93 67.05 2.85 15
6 08/29/2024 19:27:10 -76.07, 68.65 112.98 08/29/2024 19:26:04 -76.07, 68.62 112.98 0.77 66
7 09/01/2024 05:49:12 76.12, 93.01 67.96 09/01/2024 05:49:29 76.15, 92.97 67.99 3.60 17
8 09/01/2024 06:39:55 -76.06, -99.47 112.09 09/01/2024 06:38:52 -76.07, -99.61 112.08 3.84 63
9 09/03/2024 17:01:58 76.13, -75.17 68.87 09/03/2024 17:02:17 76.15, -75.27 68.89 3.27 19
10 09/03/2024 17:52:42 -76.11, 92.20 111.13 09/03/2024 17:51:39 -76.13, 92.33 111.12 3.58 63
11 09/06/2024 04:14:44 76.16, 116.60 69.82 09/06/2024 04:15:04 76.15, 116.51 69.81 2.45 20



Historial Predications of SNOs between FY3D and TERRA
